Lid_Strength_Index
1 1 1 1 1 1 2 2 4 6 5 3 2 0 -0 -0 0 1 1 1 1 2 2 2 1 -1 -1 -1 -1 -1 -1 -0 0 0 1 2 2 2
1 1 1 1 1 1 1 1 2 3 5 3 2 1 -0 -0 0 0 0 1 0 1 0 0 1 0 0 0 -0 0 0 1 1 2 2 2 2 3
1 1 1 1 1 1 1 2 2 2 4 3 1 0 0 0 1 -0 -0 1 1 1 0 1 2 1 1 1 1 1 1 2 2 2 3 3 3 4
1 1 1 1 1 2 2 2 2 2 2 4 2 1 1 1 1 1 0 1 2 1 1 2 2 2 2 2 3 3 3 3 3 3 3 4 4 5
1 1 1 1 2 2 2 2 1 1 2 2 3 2 1 1 2 0 0 1 0 1 2 2 2 3 3 3 3 4 4 5 5 5 5 5 5 5
1 1 2 2 2 2 2 2 1 2 2 2 2 2 2 1 1 2 2 1 1 2 2 3 3 3 3 4 3 3 5 6 7 7 7 7 7 6
1 1 1 1 2 1 1 1 1 2 2 3 3 3 3 3 3 2 2 2 1 0 3 5 5 6 6 4 4 4 5 6 7 7 8 8 9 8
1 1 2 4 4 5 4 3 1 2 3 3 3 3 3 2 2 2 2 3 4 1 2 3 5 6 6 6 6 6 6 6 7 7 8 9 9 9
1 2 2 2 1 2 5 5 4 5 3 1 3 3 3 2 2 2 2 3 3 2 2 3 1 2 3 3 5 7 7 8 8 8 8 9 9 10
1 1 2 1 1 1 1 1 1 1 1 0 1 1 1 2 1 1 2 2 1 1 1 3 2 2 2 1 5 7 8 9 8 8 9 9 9 10
1 1 1 1 6 6 1 2 2 2 6 7 8 9 10 10 8 2 2 3 4 3 2 2 2 3 2 2 2 7 8 9 9 9 9 9 9 10
1 4 7 2 8 7 1 2 2 2 3 4 3 6 8 6 9 5 5 6 7 7 5 7 7 7 8 5 6 7 8 9 9 9 9 9 10 11
1 1 4 8 9 9 7 1 4 5 4 2 2 1 1 1 3 3 3 5 6 6 5 5 6 7 7 8 8 7 8 8 9 9 9 9 9 9
2 2 5 10 9 9 8 10 9 5 3 3 3 2 2 2 2 1 1 2 3 4 4 5 6 7 8 8 8 7 7 7 7 9 8 7 7 7
3 4 9 10 9 10 10 9 9 4 4 3 2 2 1 2 3 3 4 5 5 4 4 5 5 6 6 8 8 7 7 7 5 6 6 7 6 8
7 8 9 8 7 6 7 9 6 4 3 2 2 3 3 4 5 6 6 6 7 7 5 4 4 5 6 6 7 6 6 7 6 5 5 5 5 3
1 2 2 2 3 3 2 1 2 2 3 2 4 5 6 7 7 6 7 7 7 7 7 6 6 6 5 6 7 7 7 7 6 5 5 5 4 3
3 2 2 2 2 2 2 2 1 2 3 5 6 7 7 7 8 8 7 8 8 8 8 8 8 8 7 5 3 5 6 6 6 5 4 5 4 2
3 2 2 2 2 2 2 2 5 5 6 7 7 7 8 8 8 8 8 8 9 9 8 8 8 8 9 10 6 5 7 7 6 6 5 5 4 2
2 2 2 2 2 3 5 6 7 7 7 7 7 7 7 7 8 9 9 9 9 9 9 7 7 8 9 9 8 7 7 6 7 7 7 5 3 2
3 2 1 2 4 4 6 6 6 7 7 7 7 8 8 8 8 9 9 12 11 9 8 8 7 10 7 7 10 9 7 5 6 6 5 5 5 5
2 1 2 4 5 6 6 6 6 7 7 7 8 8 7 8 9 9 9 9 8 7 7 7 7 8 8 9 9 8 8 7 5 3 3 3 5 7
1 2 4 5 5 5 6 7 7 8 8 8 8 8 8 9 9 8 9 7 7 8 8 9 8 8 9 9 9 8 8 8 6 5 4 2 2 2